Location: Unspecified
(34.2620°N, 0.0000°E)
Time: 21:15:58
(UTC+00:00)

ISS - Visible Passes

Search period start: 24 May 2019 00:00
Search period end: 03 June 2019 00:00
Orbit: 408 x 418 km, 51.6° (Epoch: 25 May)

Date Brightness Start Highest point End Pass type
(mag) Time Alt. Az. Time Alt. Az. Time Alt. Az.
28 May -0.5 22:13:26 10° N 22:14:05 11° NNE 22:14:05 11° NNE visible
30 May -0.9 22:09:55 10° NNW 22:11:06 17° N 22:11:06 17° N visible
31 May -1.3 21:20:51 10° N 21:23:03 16° NNE 21:23:14 16° NE visible
01 Jun -1.0 20:32:20 10° N 20:33:14 11° NNE 20:34:08 10° NE visible
01 Jun -1.1 22:07:03 10° NW 22:08:13 20° NW 22:08:13 20° NW visible
02 Jun -2.5 21:17:38 10° NNW 21:20:25 36° NNE 21:20:25 36° NNE visible
